STARLINK-36599, 67638

Orbit data source: Space-Track

STARLINK-36599, 67638 is a payload satellite owned by SpaceX/Seattle (US) in LEO that was launched on Fri, 30 Jan 2026 UTC via an FALCON 9 launch vehicle from the Air Force Eastern Test Range (AFETR). Payload-class satellites include a variety of spacecraft equipped with specific instruments for various scientific and technological missions. These include communications satellites like Starlink; space stations such as the ISS; scientific satellites like the Hubble; Earth observation satellites from companies like Planet Labs, Umbra, and HawkEye 360; GPS; miniature CubeSats for education and research; and military/defense satellites.

Loading next visibility...
Identifier
67638, 2026-020X
Orbit
LEO
Country
Flag of USUS
Related business
Manufacturer
SpaceX/Seattle
Mission
Operational spacecraft
Bus & Motor
STARLINK V2MO, Unknown motor
Mass
575 kg wet, ~530 kg dry
Launch date (UTC)
2026-01-30 (2 months ago)
Launch vehicle
FALCON 9
Launch site
Air Force Eastern Test Range (AFETR)
Object type
Payload
Rocket body
Debris
Shape & HBR
Unknown shape, 17.7 m
Radar Cross Section
RCS unknown

Expand to show TLE details & history
Last TLE update: 13 hours ago

TLE from 13 hours ago
0 STARLINK-36599
1 67638U 26020X   26104.55220698  .00006882  00000-0  25932-3 0  9998
2 67638  42.9987 297.6351 0001367 265.0299  95.0396 15.27585136 11595
Epoch: 2026-04-14T13:15Z
TLE epoch observation values (Epoch: 2026-04-14T13:15:10.683Z)
Latitude
-0.00004°
Longitude
-103.88627°
Altitude
482.891 km
Speed
7.626 km/s
True Right ascension
19h 50m 32s
True Declination
0° 00' 00"
Sunlit
Object was in daylight at epoch
Visualization orbit readout
Latitude
Unknown
Longitude
Unknown
Altitude
Unknown
Speed
Unknown
Apparent Right ascension
Unknown
Apparent Declination
Unknown
Sunlit
N/A
Visualization observer readout
Local Sidereal Time
08:53:23
Azimuth
Unknown
Elevation
Unknown
Doppler factor
Unknown
Orbital elements
Apogee altitude
485.917 km
Perigee altitude
484.041 km
Semi-major axis
6,863.116 km
Eccentricity
0.00014
Inclination
42.9987°
RAAN
297.6351°
Arg. of periapsis
265.0299°
True anomaly
95.0552°
Mean anomaly
95.0396°
Eccentric anomaly
95.0474°
Mean motion
3.81734 °/min
Orbital period
94.31 mins
BSTAR
0.00025932
Loading maneuver chart data...
Computing Atmospheric mass density...
Loading historical data...
Loading historical data...
Loading historical data...
Loading historical data...
Loading historical data...
Loading historical data...
Loading historical data...

Documentation

Showing up to 5 results
|